www.pogodaiklimat.ru

ПОГОДА в Рокингеме, NC

  • Прогноз погоды в Рокингеме
  • Монитор погоды в Рокингеме
  • Климат в Рокингеме

АРХИВ ПОГОДЫ в Рокингеме

Время (UTC), дата Ветер
(напр.,м/с)
 
Видим.   Явления Облачность Т
(С)
Тd
(С)
f
(%)
Тe
(С)
Тes
(С)
Комфортность

P
(гПа)

Po
(гПа)
Тmin
(С)
Tmax
(С)
R
(мм)
SD
(см)
06:40 26.03   8 км  слабый дождь  10/10 150 м  +12.5  +12.5  100  +12  +12      1000.4         
07:00 26.03 С  6 км  слабый дождь  10/10 90 м  +12.5  +12.5  100  +11  +11      1000.4         
07:20 26.03 СЗ  6 км  слабый дождь  10/10 90 м  +12.5  +12.5  100  +12  +12      1000.4         
07:40 26.03 С  6 км  дождь  10/10 90 м  +12.5  +12.5  100  +11  +11      1000.7         
08:00 26.03   8 км  дымка  10/10 90 м  +12.3  +12.3  100  +12  +12      1000.7         
08:20 26.03 С  8 км  дымка  10/10 180 м  +12.3  +12.3  100  +11  +11      1001.1         
08:40 26.03 С  11 км    10/10 180 м  +12.1  +12.1  100  +10  +10      1001.4         
09:00 26.03 С  11 км  морось  10/10 210 м  +11.7  +11.7  100  +10  +10      1001.7         
09:20 26.03 С  11 км  морось  10/10 210 м  +11.5  +11.5  100  +9  +9      1002.1         
09:40 26.03 С  4
{8} 
11 км  слабая морось  10/10 210 м  +11.0  +11.0  100  +8  +8      1002.7         
10:00 26.03 С  16 км  слабая морось  10/10 240 м  +10.8  +10.8  100  +8  +8      1002.7         
10:20 26.03 С  4
{7} 
16 км    10/10 270 м  +10.5  +10.5  100  +7  +7      1003.4         
10:40 26.03 С  4
{8} 
16 км    10/10 270 м  +9.7  +9.7  100  +6  +6      1004.1         
11:00 26.03 С  7
{11} 
16 км    8/8 360 м
[средняя] 
+8.5  +8.0  97  +4  +4      1004.7         
11:20 26.03 С  5
{9} 
16 км    8/8 420 м
[средняя] 
+8.0  +7.6  97  +4  +4      1005.4         
11:40 26.03 СВ  3
{4} 
16 км    10/10 480 м  +7.9  +7.5  97  +5  +5      1005.7         
12:00 26.03 СВ  5
{7} 
16 км    10/10 480 м  +8.0  +7.4  96  +4  +4      1006.1         
12:20 26.03 СВ  16 км    10/10 480 м  +8.0  +7.3  95  +5  +5      1006.4         
12:40 26.03 С  16 км    10/10 480 м  +8.4  +7.2  92  +5  +5      1006.7         
13:00 26.03 СВ  16 км    10/10 540 м  +8.8  +7.2  90  +5  +5      1006.7         
13:20 26.03 С  5
{7} 
16 км    10/10 540 м  +9.1  +7.0  87  +5  +5      1007.4         
13:40 26.03 СВ  16 км    10/10 540 м  +9.1  +6.7  85  +6  +6      1007.7         
14:00 26.03 СВ  16 км    10/10 600 м  +9.6  +6.9  83  +7  +7      1007.7         
14:20 26.03 СВ  4
{7} 
16 км    8/8 660 м  +10.2  +6.3  77  +7  +8      1008.1         
14:40 26.03 СВ  16 км    5/5 840 м  +11.2  +6.4  72  +9  +13      1008.1         
15:00 26.03 СВ  4
{7} 
16 км    8/8 840 м  +12.6  +5.8  63  +11  +12      1008.1         
15:20 26.03 СВ  16 км    10/10 30 м  +11.9  +4.5  60  +10  +10      1008.4         
15:40 26.03 СВ  4
{8} 
16 км    8/8 1080 м  +12.0  +4.6  61  +10  +11      1008.1         
16:00 26.03 СВ  4
{9} 
16 км    10/10 1080 м  +11.8  +4.7  62  +10  +10      1008.1         
16:20 26.03 СВ  4
{9} 
16 км    10/10 1080 м  +11.8  +4.9  63  +10  +10      1008.1         
16:40 26.03 С  16 км    10/10 960 м  +11.4  +4.8  64  +10  +10      1008.4         
17:00 26.03 С  16 км    10/10 900 м  +10.8  +5.0  67  +8  +8      1008.4         
17:20 26.03 С  16 км    10/10 960 м  +11.1  +5.0  66  +9  +9      1008.4         
17:40 26.03 С  16 км    10/10 810 м  +11.1  +5.0  66  +9  +9      1008.4         
18:00 26.03 С  16 км    10/10 810 м  +11.1  +5.2  67  +9  +9      1008.4         
18:20 26.03 СВ  16 км    10/10 990 м  +12.0  +5.0  62  +12  +12      1008.1         
18:40 26.03 С  16 км    8/8 990 м  +12.3  +4.8  60  +11  +13      1008.1         
19:00 26.03 С  16 км    8/8 1080 м  +12.7  +4.6  58  +11  +12      1008.1         
19:20 26.03 С  16 км    8/8 1080 м  +12.7  +4.3  57  +10  +11      1008.1         
19:40 26.03 С  16 км    8/8 1320 м  +13.0  +4.3  55  +11  +13      1008.1         
20:00 26.03   16 км    8/8 1320 м  +13.2  +4.1  54  +13  +14      1008.1         
20:20 26.03 С  16 км    8/8 1380 м  +13.9  +3.9  51  +12  +13      1008.1         
20:40 26.03   16 км    5/5 1380 м  +13.1  +3.8  53  +13  +17      1008.1         
21:00 26.03   16 км    5/5 1500 м  +13.8  +4.0  52  +14  +15      1008.4         
21:20 26.03 СВ  16 км    8/8 1500 м  +14.1  +2.8  46  +13  +13      1008.4         
21:40 26.03 С  16 км    5/5 1500 м  +14.0  +2.4  45  +13  +14      1008.4         
22:00 26.03 С  16 км    ясно  +13.4  +1.7  45  +12  +12      1008.8         
22:20 26.03 СВ  16 км    ясно  +12.7  +1.4  46  +11  +11      1009.1         

 

Местоположение метеостанции Rockingham-Hamlet Airport: широта 34.8908 долгота -79.7589 высота над уровнем моря 109 м.

В архиве по умолчанию представлена погода в Рокингеме за последние 1-2 суток. Обновление информации о фактической погоде в базе происходит ежечасно! Архивные данные за месяц целиком и за предыдущие месяцы Вы можете получить, выбрав интересующий диапазон дат из раскрывающегося списка и нажав кнопку "Ввод!".

Внимание! Архив погоды МЕТАР в базе сайта хранится не более 60 дней. Нет смысла пытаться выбрать более раннюю дату.

Внимание! Время в таблицах - всемирное. Для получения местного времени необходимо прибавить поправку, которая в Рокингеме равна -5 ч.

Ветер - указаны скорость ветра в м/с и направление, откуда дует ветер: С - северный, СВ - северо-восточный, В - восточный, ЮВ - юго-восточный, Ю - южный, ЮЗ - юго-западный, З - западный, СЗ - северо-западный.
Видимость - горизонтальная дальность видимости в метрах или километрах. При видимости от 1 до 10 км при отсутствии осадков обычно наблюдается дымка, при ухудшении видимости до 1 км и менее - туман. В сухую погоду видимость может ухудшаться дымом, пылью или мглою.
Атмосферные явления - указаны явления, наблюдавшиеся в указанный момент времени.
Облачность - указаны через наклонную черту верхняя и нижняя облачность в баллах и высота нижней границы облаков в метрах. Внимание: облачность, как и прочие метеорологические величины в США измеряются автоматическими метеостанциями. Указанные значения в баллах носят условный характер и показывают процент времени, в течение которого, в среднем, лазерный луч высотомера отражался от облаков обратно.
T - Температура воздуха - температура, измеренная на высоте 2 м над землей.
Td - Температура точки росы - температура, при понижении до которой содержащийся в воздухе водяной пар достигнет насыщения.
f - Относительная влажность воздуха - влажноcть воздуха, измеренная на высоте 2 м над землей.
Te - Эффективная температура - температура, которую ощущает одетый по сезону человек в тени. Характеристика душности погоды. При расчете учитывается влияние влажности воздуха и скорости ветра на теплоощущения человека.
Tes - Эффективная температура на солнце - температура, которую ощущает человек, с поправкой на солнечный нагрев. Характеристика знойности погоды. Зависит от высоты солнца над горизонтом, облачности и скорости ветра. Ночью, в пасмурную погоду, а также при ветре 12 м/с и более поправка равна нулю.
P - Атмосферное давление - приведенное к уровню моря атмосферное давление.
Po - Атмосферное давление - измеренное на уровне метеостанции атмосферное давление.
Tmin - Минимальная температура - минимум температуры воздуха на высоте 2 м над землей.
Tmax - Максимальная температура - максимум температуры воздуха на высоте 2 м над землей.
R - Количество осадков - Количество выпавших осадков за 3 или 6 часов, мм.
SD - Снежный покров - Высота снежного покрова, см.